« Back
NWS Peachtree City, Ga » Text Product » GA Regional Weather Roundup


Printer-friendly Version
Current Version              Previous Versions:   1  2  3  4  5  6  7  8  9  

Regional Weather Roundup

559
ASUS42 KFFC 182303
RWRGA
WEATHER ROUNDUP FOR GEORGIA
NATIONAL WEATHER SERVICE PEACHTREE CITY GA
600 PM EST THU DEC 18 2014

NOTE: "FAIR" INDICATES FEW OR NO CLOUDS BELOW 12,000 FEET WITH NO
SIGNIFICANT WEATHER AND/OR OBSTRUCTIONS TO VISIBILITY.

* = USE WITH CAUTION. THE STATIONS MARKED WITH AN ASTERISK MAY NOT
REPORT WEATHER SUCH AS PRECIPITATION, FOG, OR THUNDER AND ARE NOT
QUALITY CONTROLLED BY NWS.

THE REMARK "TC" DENOTES TEMPERATURE READING IN DEGREES CELSIUS.

GAZ001>058-190000-
NORTH GEORGIA

CITY           SKY/WX    TMP DP  RH WIND       PRES   REMARKS
ATLANTA        MOCLDY    52  32  46 NW8       30.11R
ATHENS         CLOUDY    54  31  41 CALM      30.08S
CHAMBLEE       CLOUDY    51  31  46 NW6       30.12R
PEACHTREE CITY CLOUDY    52  34  50 W3        30.12S
ROME           CLOUDY    47  35  63 NW5       30.14S
WEST ATLANTA   CLOUDY    51  33  50 NW7       30.12R
GAINESVILLE    CLOUDY    51  32  48 W8        30.10R
CARTERSVILLE   CLOUDY    47  35  63 CALM      30.15R


CITY           SKY/WX    TMP DP  RH WIND       PRES   REMARKS
DALTON*        CLOUDY    43  36  75 CALM      30.15S
LAWRENCEVILLE* CLOUDY    54  27  35 W7        30.09S
MARIETTA       CLOUDY    49  34  57 W7        30.12S
KENNESAW*      MOCLDY    46  32  57 W5        30.15R
$$

GAZ059>098-102>109-190000-
CENTRAL GEORGIA

CITY           SKY/WX    TMP DP  RH WIND       PRES   REMARKS
AUGUSTA-BUSH   CLEAR     51  40  65 CALM      30.08S
AUGUSTA-DANIEL PTCLDY    57  41  55 NW5       30.08S
COLUMBUS       PTCLDY    57  31  37 NW3       30.12R
MACON          PTCLDY    59  30  33 CALM      30.10R
ROBINS AFB     PTCLDY    57  32  39 CALM      30.08R


CITY           SKY/WX    TMP DP  RH WIND       PRES   REMARKS
LAGRANGE*      PTCLDY    50  40  68 CALM      30.12S
SYLVANIA*      CLEAR     52  43  71 CALM      30.09S
MILLEDGEVILLE* PTCLDY    50  43  76 CALM      30.09S
$$

GAZ099>101-110>166-190000-
SOUTH GEORGIA

CITY           SKY/WX    TMP DP  RH WIND       PRES   REMARKS
SAVANNAH       MOCLDY    56  38  50 CALM      30.08S
VALDOSTA       CLEAR     52  41  66 CALM      30.11R
ALMA           CLEAR     53  40  61 CALM      30.09R
ST SIMONS      PTCLDY    53  44  71 W3        30.08F
FT STEWART     CLEAR     52  42  70 CALM      30.07S
ALBANY         PTCLDY    55  41  59 SW3       30.12R
HUNTER AFB     CLEAR     54  42  65 SE2       30.06S
MOODY AFB      CLEAR     54  39  55 W3        30.11R
BRUNSWICK      PTCLDY    54  43  66 CALM      30.09S


CITY           SKY/WX    TMP DP  RH WIND       PRES   REMARKS
BAINBRIDGE*    CLEAR     55  46  71 SW3       30.11S
MOULTRIE*      PTCLDY    54  45  71 CALM      30.11F
VIDALIA*       CLEAR     55  41  58 CALM      30.09R
WAYCROSS*      CLEAR     56  44  64 W5        30.11R
DOUGLAS*       CLEAR     57  36  44 W3        30.11R
$$



USA.gov is the U.S. government's official web portal to all federal, state and local government web resources and services.